Location: Oroua River
(40.4333°S, 175.4333°E)
Time: 15:09:36
(UTC+00:00)

CBERS-1 - Pass Details

Date: 03 February 2023
Orbit: 769 x 775 km, 98.7° (Epoch: 22 March)

Event Time Altitude Azimuth Distance (km) Brightness Sun altitude
Exits shadow 15:18:37 47° 317° (NW) 1,036 4.2 -21.2°
Maximum altitude 15:19:34 53° 281° (W) 957 4.1 -21.1°
Drops below altitude 10° 15:24:39 10° 203° (SSW) 2,356 6.8 -20.4°
Sets 15:27:03 0° 198° (SSW) 3,291 7.6 -20.1°
